GW5874 Weather Reports


time (UTC)temp
C
wind
direction
speed
KPH
gust
KPH
rain 1hr
cm
rain 24hr
cm
rain mn
cm
humidity
%
barometer
mb
20260906082100 21 262 0.0 0.0 0.00 0.00 0.00 89 1013.2
20260906081556 21 261 0.0 0.0 0.00 0.00 0.00 89 1013.2
20260906081051 21 278 0.0 0.0 0.00 0.00 0.00 89 1013.3
20260906080548 21 277 0.0 0.0 0.00 0.00 0.00 89 1013.3
20260906080043 21 255 0.0 0.0 0.00 0.00 0.00 89 1013.2
20260906075543 21 252 0.0 0.0 0.00 0.00 0.00 89 1013.2
20260906075037 22 252 0.0 0.0 0.00 0.00 0.00 88 1013.1
20260906074532 22 268 0.0 0.0 0.00 0.00 0.00 88 1013.5
20260906074031 22 280 0.0 0.0 0.00 0.00 0.00 88 1013.4
20260906073526 22 33 0.0 0.0 0.00 0.00 0.00 87 1013.2
20260906073022 22 253 0.0 0.0 0.00 0.00 0.00 87 1013.5
20260906072517 22 281 0.0 0.0 0.00 0.00 0.00 87 1013.5
20260906072013 22 273 0.0 0.0 0.00 0.00 0.00 87 1013.6
20260906071509 22 265 0.0 0.0 0.00 0.00 0.00 87 1013.3
20260906071004 22 245 0.0 0.0 0.00 0.00 0.00 87 1013.5
20260906070500 22 278 0.0 0.0 0.00 0.00 0.00 87 1013.7
20260906065956 22 273 0.0 0.0 0.00 0.00 0.00 86 1013.4
20260906065455 22 256 0.0 0.0 0.00 0.00 0.00 86 1013.4
20260906064951 22 283 0.0 0.0 0.00 0.00 0.00 86 1013.6
20260906064448 22 285 0.0 0.0 0.00 0.00 0.00 86 1013.7
20260906063947 22 253 0.0 0.0 0.00 0.00 0.00 86 1013.5
20260906063443 22 260 0.0 0.0 0.00 0.00 0.00 86 1013.6
20260906062943 22 252 0.0 0.0 0.00 0.00 0.00 86 1013.5
20260906062438 22 246 0.0 0.0 0.00 0.00 0.00 86 1013.5
20260906061934 22 287 0.0 0.0 0.00 0.00 0.00 86 1013.5
20260906061430 22 281 0.0 0.0 0.00 0.00 0.00 85 1013.6
20260906060930 22 246 0.0 0.0 0.00 0.00 0.00 85 1013.7
20260906060427 22 236 0.0 0.0 0.00 0.00 0.00 85 1013.5
20260906055923 22 279 0.0 0.0 0.00 0.00 0.00 85 1013.5
20260906055419 22 246 0.0 0.0 0.00 0.00 0.00 85 1013.7
20260906054914 23 268 0.0 0.0 0.00 0.00 0.00 84 1013.5
20260906054408 23 270 0.0 0.0 0.00 0.00 0.00 84 1013.6
20260906053905 23 270 0.0 0.0 0.00 0.00 0.00 84 1013.5
20260906053400 23 266 0.0 0.0 0.00 0.00 0.00 83 1013.7
20260906052856 23 283 0.0 0.0 0.00 0.00 0.00 83 1013.5
20260906052352 23 258 0.0 0.0 0.00 0.00 0.00 83 1013.5
20260906051849 23 257 0.0 0.0 0.00 0.00 0.00 83 1013.5
20260906051348 23 269 0.0 0.0 0.00 0.00 0.00 82 1013.4
20260906050844 23 268 0.0 0.0 0.00 0.00 0.00 82 1013.5
20260906050339 23 264 0.0 0.0 0.00 0.00 0.00 82 1013.5
20260906045838 23 284 0.0 0.0 0.00 0.00 0.00 82 1013.5
20260906045332 23 228 0.0 0.0 0.00 0.00 0.00 82 1013.3
20260906044829 23 250 0.0 0.0 0.00 0.00 0.00 81 1013.5
20260906044328 24 279 0.0 0.0 0.00 0.00 0.00 80 1013.4
20260906043826 23 281 0.0 0.0 0.00 0.00 0.00 81 1013.4
20260906043320 24 247 0.0 0.0 0.00 0.00 0.00 80 1013.6
20260906042820 24 272 0.0 0.0 0.00 0.00 0.00 80 1013.6
20260906042319 24 281 0.0 0.0 0.00 0.00 0.00 80 1013.6
20260906041815 24 282 0.0 0.0 0.00 0.00 0.00 80 1013.6
20260906041310 24 275 0.0 0.0 0.00 0.00 0.00 80 1013.5
20260906040805 24 255 0.0 0.0 0.00 0.00 0.00 80 1013.6
20260906040301 24 249 0.0 0.0 0.00 0.00 0.00 79 1013.4
20260906035756 24 265 0.0 0.0 0.00 0.00 0.00 78 1013.5
20260906035252 25 264 0.0 0.0 0.00 0.00 0.00 78 1013.6
20260906034751 25 256 0.0 0.0 0.00 0.00 0.00 77 1013.2
20260906034246 25 296 0.0 0.0 0.00 0.00 0.00 78 1013.2
20260906033742 25 255 0.0 0.0 0.00 0.00 0.00 77 1013.4
20260906033241 25 252 0.0 0.0 0.00 0.00 0.00 77 1013.1
20260906032738 25 272 0.0 0.0 0.00 0.00 0.00 77 1013.2
20260906032238 25 258 0.0 0.0 0.00 0.00 0.00 77 1013.1
20260906031733 25 270 0.0 0.0 0.00 0.00 0.00 76 1013.2
20260906031229 25 290 0.0 0.0 0.00 0.00 0.00 75 1013.1
20260906030729 25 307 0.0 0.0 0.00 0.00 0.00 75 1013.2
20260906030224 25 260 0.0 0.0 0.00 0.00 0.00 75 1013.4
20260906025723 25 268 0.0 0.0 0.00 0.00 0.00 74 1013.2
20260906025218 25 263 0.0 0.0 0.00 0.00 0.00 75 1013.1
20260906024717 25 263 0.0 0.0 0.00 0.00 0.00 74 1013.0
20260906024216 25 263 0.0 0.0 0.00 0.00 0.00 74 1013.0
20260906023712 26 267 0.0 0.0 0.00 0.00 0.00 73 1012.8
20260906023212 26 264 0.0 0.0 0.00 0.00 0.00 73 1013.0
20260906022708 26 280 0.0 0.0 0.00 0.00 0.00 73 1012.7
20260906022203 26 273 0.0 0.0 0.00 0.00 0.00 72 1012.7
20260906021659 26 272 0.0 0.0 0.00 0.00 0.00 72 1012.6
20260906021158 26 272 0.0 0.0 0.00 0.00 0.00 71 1012.5
20260906020653 26 271 0.0 0.0 0.00 0.00 0.00 71 1012.5
20260906020148 26 273 0.0 0.0 0.00 0.00 0.00 71 1012.2
20260906015648 27 271 0.0 0.0 0.00 0.00 0.00 71 1012.5
20260906015147 27 283 0.0 0.0 0.00 0.00 0.00 70 1012.5
20260906014646 27 268 0.0 0.0 0.00 0.00 0.00 69 1012.3
20260906014143 27 263 0.0 0.0 0.00 0.00 0.00 69 1012.1
20260906013638 27 283 0.0 0.0 0.00 0.00 0.00 68 1012.2
20260906013134 27 287 0.0 0.0 0.00 0.00 0.00 68 1012.2
20260906012633 27 278 0.0 0.0 0.00 0.00 0.00 67 1012.0
20260906012128 28 278 0.0 0.0 0.00 0.00 0.00 67 1011.9
20260906011624 28 256 0.0 0.0 0.00 0.00 0.00 66 1012.1
20260906011125 28 281 0.0 0.0 0.00 0.00 0.00 65 1011.9
20260906010620 28 276 0.0 0.0 0.00 0.00 0.00 64 1011.7
20260906010116 28 277 0.0 0.0 0.00 0.00 0.00 63 1011.7
20260906005615 29 240 0.0 0.0 0.00 0.00 0.00 64 1011.7
20260906005115 30 287 0.0 0.0 0.00 0.00 0.00 60 1011.7
20260906004614 30 285 0.0 0.0 0.00 0.00 0.00 59 1011.6
20260906004109 31 277 0.0 0.0 0.00 0.00 0.00 58 1011.6
20260906003604 31 283 0.0 0.0 0.00 0.00 0.00 57 1011.7
20260906003101 31 275 0.0 0.0 0.00 0.00 0.00 57 1011.8
20260906002601 31 257 0.0 0.0 0.00 0.00 0.00 55 1011.7
20260906002055 32 237 0.0 0.0 0.00 0.00 0.00 53 1011.6
20260906001550 32 254 0.0 0.0 0.00 0.00 0.00 53 1011.6
20260906001045 33 262 0.0 0.0 0.00 0.00 0.00 48 1011.7
20260906000541 35 269 0.0 0.0 0.00 0.00 0.00 43 1011.9
20260906000036 35 273 0.0 0.0 0.00 0.00 0.00 41 1011.7
20260905235536 36 271 0.0 0.0 0.00 0.00 0.00 39 1011.8
20260905235031 37 270 0.0 0.0 0.00 0.00 0.00 37 1011.8
20260905234526 37 289 0.0 0.0 0.00 0.00 0.00 36 1011.9
20260905234026 37 268 0.0 0.0 0.00 0.00 0.00 35 1011.5
20260905233521 37 283 1.6 1.6 0.00 0.00 0.00 35 1011.6
20260905233021 37 244 1.6 1.6 0.00 0.00 0.00 35 1011.7
20260905232516 37 280 0.0 1.6 0.00 0.00 0.00 34 1011.7
20260905232012 37 262 0.0 0.0 0.00 0.00 0.00 34 1011.8
20260905231507 38 209 1.6 1.6 0.00 0.00 0.00 36 1011.8
20260905231004 38 315 0.0 1.6 0.00 0.00 0.00 35 1011.7
20260905230502 38 223 1.6 1.6 0.00 0.00 0.00 35 1011.5
20260905230000 38 268 1.6 1.6 0.00 0.00 0.00 36 1011.6
20260905225456 38 269 3.2 4.8 0.00 0.00 0.00 33 1011.7
20260905224950 38 258 3.2 4.8 0.00 0.00 0.00 32 1011.7
20260905224446 38 239 1.6 1.6 0.00 0.00 0.00 33 1011.6
20260905223945 38 276 1.6 1.6 0.00 0.00 0.00 35 1011.7
20260905223443 38 312 3.2 6.4 0.00 0.00 0.00 34 1011.5
20260905222938 38 226 3.2 4.8 0.00 0.00 0.00 33 1011.6
20260905222438 38 275 0.0 1.6 0.00 0.00 0.00 34 1011.6
20260905221933 38 232 3.2 4.8 0.00 0.00 0.00 33 1011.7
20260905221430 38 184 3.2 4.8 0.00 0.00 0.00 34 1011.7
20260905220926 38 107 1.6 4.8 0.00 0.00 0.00 34 1011.8
20260905220422 38 300 1.6 1.6 0.00 0.00 0.00 34 1011.9
20260905215920 38 209 6.4 6.4 0.00 0.00 0.00 34 1011.8
20260905215416 38 244 4.8 6.4 0.00 0.00 0.00 34 1011.9
20260905214913 38 222 3.2 4.8 0.00 0.00 0.00 34 1011.9
20260905214408 38 203 3.2 4.8 0.00 0.00 0.00 34 1011.8
20260905213908 38 237 6.4 6.4 0.00 0.00 0.00 34 1012.0
20260905213404 38 185 8.0 8.0 0.00 0.00 0.00 34 1011.9
20260905212859 38 233 4.8 6.4 0.00 0.00 0.00 34 1011.9
20260905212354 38 225 3.2 4.8 0.00 0.00 0.00 35 1012.1
20260905211853 38 231 1.6 1.6 0.00 0.00 0.00 33 1012.1
20260905211349 38 209 6.4 6.4 0.00 0.00 0.00 33 1012.0
20260905210845 38 224 4.8 6.4 0.00 0.00 0.00 34 1012.5
20260905210345 37 151 1.6 4.8 0.00 0.00 0.00 35 1012.4
20260905205844 38 250 1.6 1.6 0.00 0.00 0.00 35 1012.6
20260905205339 39 177 4.8 4.8 0.00 0.00 0.00 34 1012.6
20260905204838 38 207 4.8 6.4 0.00 0.00 0.00 34 1012.7
20260905204335 38 211 6.4 6.4 0.00 0.00 0.00 33 1012.8
20260905203833 38 210 4.8 6.4 0.00 0.00 0.00 34 1013.0
20260905203329 38 195 6.4 6.4 0.00 0.00 0.00 34 1013.1
20260905202825 38 170 4.8 6.4 0.00 0.00 0.00 34 1013.0
20260905202319 38 55 4.8 4.8 0.00 0.00 0.00 35 1013.2
20260905201815 38 91 4.8 6.4 0.00 0.00 0.00 36 1013.3
20260905201311 38 25 4.8 6.4 0.00 0.00 0.00 35 1013.3
20260905200810 39 37 4.8 6.4 0.00 0.00 0.00 34 1013.5
20260905200307 38 185 3.2 6.4 0.00 0.00 0.00 34 1013.5
20260905195804 38 194 3.2 4.8 0.00 0.00 0.00 35 1013.6
20260905195259 39 263 3.2 4.8 0.00 0.00 0.00 34 1013.5
20260905194755 38 215 1.6 1.6 0.00 0.00 0.00 36 1013.6
20260905194255 37 267 0.0 1.6 0.00 0.00 0.00 36 1013.6
20260905193754 36 285 1.6 1.6 0.00 0.00 0.00 38 1013.9
20260905193249 36 218 1.6 1.6 0.00 0.00 0.00 39 1013.8
20260905192744 36 51 0.0 1.6 0.00 0.00 0.00 39 1013.9
20260905192241 37 213 3.2 4.8 0.00 0.00 0.00 38 1014.0
20260905191740 38 220 1.6 1.6 0.00 0.00 0.00 36 1013.9
20260905191238 38 187 4.8 6.4 0.00 0.00 0.00 37 1014.0
20260905190737 38 194 6.4 6.4 0.00 0.00 0.00 35 1014.3
20260905190237 38 317 6.4 6.4 0.00 0.00 0.00 37 1014.1
20260905185736 37 209 8.0 8.0 0.00 0.00 0.00 36 1014.3
20260905185231 37 186 3.2 4.8 0.00 0.00 0.00 38 1014.3
20260905184731 37 188 4.8 6.4 0.00 0.00 0.00 36 1014.5
20260905184230 37 217 1.6 1.6 0.00 0.00 0.00 38 1014.5
20260905183729 37 55 6.4 6.4 0.00 0.00 0.00 37 1014.5
20260905183225 37 208 6.4 8.0 0.00 0.00 0.00 37 1014.5
20260905182724 37 264 3.2 6.4 0.00 0.00 0.00 38 1014.7
20260905182224 37 195 3.2 4.8 0.00 0.00 0.00 38 1014.8
20260905181719 38 351 3.2 4.8 0.00 0.00 0.00 36 1014.9
20260905181218 39 17 3.2 6.4 0.00 0.00 0.00 36 1014.9
20260905180713 38 219 4.8 6.4 0.00 0.00 0.00 37 1015.2
20260905180209 38 44 4.8 8.0 0.00 0.00 0.00 37 1015.1
20260905175708 37 258 3.2 4.8 0.00 0.00 0.00 39 1015.1
20260905175203 37 34 6.4 6.4 0.00 0.00 0.00 39 1015.0
20260905174658 37 208 1.6 4.8 0.00 0.00 0.00 39 1015.1
20260905174154 36 76 9.7 11.3 0.00 0.00 0.00 40 1015.2
20260905173650 36 48 4.8 6.4 0.00 0.00 0.00 42 1015.1
20260905173145 35 102 9.7 11.3 0.00 0.00 0.00 43 1015.3
20260905172644 37 129 8.0 8.0 0.00 0.00 0.00 40 1015.4
20260905172139 38 185 4.8 6.4 0.00 0.00 0.00 39 1015.5
20260905171635 37 216 1.6 1.6 0.00 0.00 0.00 40 1015.6
20260905171131 37 217 4.8 6.4 0.00 0.00 0.00 39 1015.6
20260905170627 36 58 3.2 4.8 0.00 0.00 0.00 42 1015.6
20260905170123 37 245 1.6 1.6 0.00 0.00 0.00 41 1015.7
20260905165617 36 270 3.2 4.8 0.00 0.00 0.00 41 1015.8
20260905165113 37 278 3.2 4.8 0.00 0.00 0.00 41 1015.6
20260905164608 37 295 3.2 4.8 0.00 0.00 0.00 40 1015.8
20260905164107 37 271 3.2 4.8 0.00 0.00 0.00 40 1015.8
20260905163603 36 262 1.6 1.6 0.00 0.00 0.00 41 1015.7
20260905163059 36 201 3.2 4.8 0.00 0.00 0.00 42 1015.8
20260905162555 37 245 3.2 4.8 0.00 0.00 0.00 42 1016.1
20260905162055 36 289 1.6 1.6 0.00 0.00 0.00 42 1016.1
20260905161555 36 280 3.2 4.8 0.00 0.00 0.00 43 1015.9
20260905161053 36 305 3.2 4.8 0.00 0.00 0.00 45 1016.1
20260905160552 35 234 1.6 1.6 0.00 0.00 0.00 46 1015.8
20260905160051 36 252 1.6 1.6 0.00 0.00 0.00 44 1015.9
20260905155551 35 231 0.0 0.0 0.00 0.00 0.00 45 1015.9
20260905155050 35 301 4.8 6.4 0.00 0.00 0.00 46 1015.8
20260905154545 35 297 3.2 4.8 0.00 0.00 0.00 46 1015.9
20260905154041 35 291 3.2 4.8 0.00 0.00 0.00 47 1015.8
20260905153537 35 279 3.2 4.8 0.00 0.00 0.00 46 1015.9
20260905153036 35 228 3.2 4.8 0.00 0.00 0.00 47 1015.7
20260905152531 35 214 4.8 6.4 0.00 0.00 0.00 48 1015.8
20260905152026 33 249 4.8 6.4 0.00 0.00 0.00 51 1015.9
20260905151521 33 218 3.2 4.8 0.00 0.00 0.00 50 1015.8
20260905151017 33 174 4.8 4.8 0.00 0.00 0.00 51 1015.8
20260905150512 32 251 1.6 1.6 0.00 0.00 0.00 53 1015.8
20260905150010 32 207 4.8 6.4 0.00 0.00 0.00 54 1015.8
20260905145503 32 202 3.2 6.4 0.00 0.00 0.00 56 1015.8
20260905145002 32 228 0.0 0.0 0.00 0.00 0.00 55 1015.7
20260905144458 32 200 0.0 0.0 0.00 0.00 0.00 55 1015.7
20260905143956 32 233 0.0 0.0 0.00 0.00 0.00 56 1015.8
20260905143455 31 214 0.0 0.0 0.00 0.00 0.00 56 1015.8
20260905142951 31 281 0.0 0.0 0.00 0.00 0.00 57 1015.6
20260905142449 31 210 0.0 0.0 0.00 0.00 0.00 56 1015.7
20260905141945 31 248 0.0 0.0 0.00 0.00 0.00 59 1015.6
20260905141439 30 331 0.0 0.0 0.00 0.00 0.00 61 1015.6
20260905140936 30 178 0.0 0.0 0.00 0.00 0.00 62 1015.6
20260905140431 30 187 0.0 0.0 0.00 0.00 0.00 62 1015.9
20260905135930 30 195 0.0 0.0 0.00 0.00 0.00 64 1015.6
20260905135425 29 192 0.0 0.0 0.00 0.00 0.00 65 1015.7
20260905134921 28 245 0.0 0.0 0.00 0.00 0.00 68 1015.6
20260905134420 27 240 0.0 0.0 0.00 0.00 0.00 71 1015.7
20260905133915 27 304 0.0 0.0 0.00 0.00 0.00 72 1015.6
20260905133415 27 272 0.0 0.0 0.00 0.00 0.00 72 1015.6
20260905132914 27 243 0.0 0.0 0.00 0.00 0.00 71 1015.6
20260905132409 27 217 0.0 0.0 0.00 0.00 0.00 73 1015.5
20260905131904 26 216 0.0 0.0 0.00 0.00 0.00 76 1015.5
20260905131400 25 278 0.0 0.0 0.00 0.00 0.00 79 1015.5
20260905130855 24 254 0.0 0.0 0.00 0.00 0.00 84 1015.3
20260905130354 23 272 0.0 0.0 0.00 0.00 0.00 89 1015.5
20260905125849 22 280 0.0 0.0 0.00 0.00 0.00 92 1015.5
20260905125344 21 275 0.0 0.0 0.00 0.00 0.00 93 1015.4
20260905124840 21 267 0.0 0.0 0.00 0.00 0.00 93 1015.5
20260905124336 21 267 0.0 0.0 0.00 0.00 0.00 94 1015.1
20260905123836 21 281 0.0 0.0 0.00 0.00 0.00 94 1015.5
20260905123333 21 276 0.0 0.0 0.00 0.00 0.00 94 1015.3
20260905122833 21 264 0.0 0.0 0.00 0.00 0.00 94 1015.2
20260905122332 21 253 0.0 0.0 0.00 0.00 0.00 94 1015.3
20260905121827 20 265 0.0 0.0 0.00 0.00 0.00 95 1015.2
20260905121324 20 277 0.0 0.0 0.00 0.00 0.00 95 1015.2
20260905120822 20 283 0.0 0.0 0.00 0.00 0.00 95 1015.3
20260905120317 20 274 0.0 0.0 0.00 0.00 0.00 95 1015.3
20260905115812 20 266 0.0 0.0 0.00 0.00 0.00 95 1014.9
20260905115311 20 264 0.0 0.0 0.00 0.00 0.00 95 1015.1
20260905114811 20 269 0.0 0.0 0.00 0.00 0.00 95 1014.8
20260905114310 20 260 0.0 0.0 0.00 0.00 0.00 95 1014.9
20260905113810 20 253 0.0 0.0 0.00 0.00 0.00 95 1014.8
20260905113306 20 271 0.0 0.0 0.00 0.00 0.00 95 1014.7
20260905112801 20 270 0.0 0.0 0.00 0.00 0.00 95 1014.9
20260905112256 20 274 0.0 0.0 0.00 0.00 0.00 95 1014.8
20260905111751 20 273 0.0 0.0 0.00 0.00 0.00 95 1014.8
20260905111251 20 265 0.0 0.0 0.00 0.00 0.00 94 1014.8
20260905110750 20 237 0.0 0.0 0.00 0.00 0.00 94 1014.6
20260905110244 20 272 0.0 0.0 0.00 0.00 0.00 94 1014.8
20260905105740 20 270 0.0 0.0 0.00 0.00 0.00 94 1014.8
20260905105239 20 276 0.0 0.0 0.00 0.00 0.00 94 1014.6
20260905104734 20 266 0.0 0.0 0.00 0.00 0.00 94 1014.5
20260905104230 20 257 0.0 0.0 0.00 0.00 0.00 94 1014.5
20260905103724 20 275 0.0 0.0 0.00 0.00 0.00 94 1014.6
20260905103220 21 275 0.0 0.0 0.00 0.00 0.00 94 1014.5
20260905102716 21 276 0.0 0.0 0.00 0.00 0.00 94 1014.6
20260905102212 21 256 0.0 0.0 0.00 0.00 0.00 93 1014.5
20260905101711 21 270 0.0 0.0 0.00 0.00 0.00 93 1014.5
20260905101209 21 265 0.0 0.0 0.00 0.00 0.00 93 1014.5
20260905100706 21 265 0.0 0.0 0.00 0.00 0.00 93 1014.5
20260905100201 21 265 0.0 0.0 0.00 0.00 0.00 93 1014.4
20260905095700 21 270 0.0 0.0 0.00 0.00 0.00 92 1014.6
20260905095155 21 277 0.0 0.0 0.00 0.00 0.00 92 1014.3
20260905094650 21 280 0.0 0.0 0.00 0.00 0.00 92 1014.4
20260905094149 21 287 0.0 0.0 0.00 0.00 0.00 92 1014.3
20260905093644 21 255 0.0 0.0 0.00 0.00 0.00 92 1014.4
20260905093140 21 274 0.0 0.0 0.00 0.00 0.00 92 1014.5
20260905092640 21 274 0.0 0.0 0.00 0.00 0.00 92 1014.3
20260905092136 21 278 0.0 0.0 0.00 0.00 0.00 92 1014.3
20260905091636 21 265 0.0 0.0 0.00 0.00 0.00 92 1014.4
20260905091135 21 264 0.0 0.0 0.00 0.00 0.00 91 1014.4
20260905090630 21 260 0.0 0.0 0.00 0.00 0.00 91 1014.4
20260905090126 21 258 0.0 0.0 0.00 0.00 0.00 91 1014.2
20260905085624 21 278 0.0 0.0 0.00 0.00 0.00 91 1014.4
20260905085120 21 265 0.0 0.0 0.00 0.00 0.00 91 1014.2
20260905084619 21 260 0.0 0.0 0.00 0.00 0.00 91 1014.2
20260905084115 21 293 0.0 0.0 0.00 0.00 0.00 91 1013.9
20260905083615 21 264 0.0 0.0 0.00 0.00 0.00 91 1014.2
20260905083111 21 250 0.0 0.0 0.00 0.00 0.00 91 1014.2
20260905082606 21 250 0.0 0.0 0.00 0.00 0.00 90 1014.5